Regional Weather Roundup
Issued by NWS

Home | Current Version | Previous Version | Graphics & Text | Print | Product List | Glossary On
Versions: 1 2 3 4 5 6 7 8 9 10 11 12 13 14 15 16 17 18 19 20 21 22 23 24 25 26 27 28 29 30 31 32 33 34 35 36 37 38 39 40 41 42 43 44 45 46 47 48 49 50
000
ASUS43 KLOT 301406
RWRIL

ILLINOIS REGIONAL WEATHER ROUNDUP
NATIONAL WEATHER SERVICE CHICAGO/ROMEOVILLE IL
900 AM CDT TUE SEP 30 2014

NOTE: "FAIR" INDICATES FEW OR NO CLOUDS BELOW 12,000 FEET WITH NO
SIGNIFICANT WEATHER AND/OR OBSTRUCTIONS TO VISIBILITY.

* THESE STATIONS ARE NOT UNDER NWS QUALITY CONTROL. THEY ALSO MAY NOT
  REPORT WEATHER SUCH AS PRECIPITATION OR FOG.

ILZ001-002-007-009-015-016-024-301500-
NORTHWEST ILLINOIS

CITY           SKY/WX    TMP DP  RH WIND       PRES   REMARKS
MOLINE         NOT AVBL
SAVANNA*       CLOUDY    51  44  77 NE6       30.07S
$$

ILZ003-004-008-010-011-017-018-301500-
NORTH CENTRAL ILLINOIS

CITY           SKY/WX    TMP DP  RH WIND       PRES   REMARKS
ROCKFORD       CLOUDY    46  42  86 NE10      30.10S
FREEPORT*      CLOUDY    46  42  87 E7        30.10R
ROCHELLE*      CLOUDY    47  41  81 NE12      30.08R
DE KALB*       CLOUDY    45  41  85 NE12      30.07F
PERU*          CLOUDY    52  46  78 NE10      30.07R
$$

ILZ005-006-012>014-019>023-301500-
NORTHEAST ILLINOIS

CITY           SKY/WX    TMP DP  RH WIND       PRES   REMARKS
CHICAGO-OHARE  DRIZZLE   48  45  89 N12       30.06S FOG
CHICAGO-MIDWAY CLOUDY    51  49  92 NW12      30.05R
AURORA         CLOUDY    50  43  77 NE13      30.07R
LANSING*       CLOUDY    54  49  83 NE9       30.04S
JOLIET*        CLOUDY    51  47  87 NE13      30.05R
WAUKEGAN       CLOUDY    47  43  86 VRB6      30.07R
DUPAGE AIRPORT CLOUDY    49  44  83 NE12      30.06S
KANKAKEE*      CLOUDY    55  49  78 N7        30.04S
WHEELING       CLOUDY    49  45  86 N10       30.06R
MORRIS*        CLOUDY    52  48  86 NE6       30.05R
ROMEOVILLE*    CLOUDY    51  47  86 NE12      30.05S
NORTHERLY ISL    N/A     54  49  83 N9          N/A
$$

LMZ740>746-301500-
SOUTHERN LAKE MICHIGAN

STATION/POSITION SKY/WX   TEMP    WIND        PRES    VSBY  WAVE
                          AIR SEA DIR/SP/G                  HT/PER
                          (F)     (DEG/KT/KT) (MB)    (MI)  (FT/S)
SOUTHERN BUOY              52 61  360/ 17/ 21 1017.0F         6/ 8
WAUKEGAN HARBOR                   340/ 13/ 15   N/A
HARRISON CRIB              52     360/ 17/ 21   N/A
BURNHAM HARBOR             52     330/  9/ 16   N/A
CALUMET HARBOR             54     360/ 12/ 15 1016.2S
MICHIGAN CITY              53     350/ 16/ 22   N/A
MICHIGAN CITY 6N           55 64   10/ 14/ 19   N/A           7/ 2
ST. JOSEPH                 54 62   10/ 16/ 21   N/A           6/ 2
$$

ILZ025>027-034>036-040-047-049-050-058-095>099-301500-
WEST-CENTRAL ILLINOIS

CITY           SKY/WX    TMP DP  RH WIND       PRES   REMARKS
QUINCY         FOG       59  58  96 E7        29.98S VSB 1/4
GALESBURG*     CLOUDY    55  53  93 NE10      30.02S FOG
MACOMB*        CLOUDY    57  55  94 E7        30.03S FOG
JACKSONVILLE*  FOG       60  59  97 NE7       30.00S VSB 1/4
PITTSFIELD*    FOG       60  58  93 NE7       30.00S VSB<1/4
$$

ILZ028>032-037-038-041>044-048-051>054-059>061-301500-
CENTRAL ILLINOIS

CITY           SKY/WX    TMP DP  RH WIND       PRES   REMARKS
PONTIAC        CLOUDY    55  50  82 NE5       30.04R
BLOOMINGTON    CLOUDY    55  52  90 NE14        N/A
DECATUR        CLOUDY    57  55  93 E10       30.01S
PEORIA         CLOUDY    58  52  80 NE10      30.03R
LACON*         CLOUDY    54  48  80 NE8       30.04S
LINCOLN*       CLOUDY    58  54  86 NE9       30.00R
SPRINGFIELD    CLOUDY    57  56  96 NE13      30.01R FOG
TAYLORVILLE    FOG       55  55 100 NE7       30.00R VSB 1/2
$$

ILZ033-039-045-046-055>057-062-063-301500-
EAST-CENTRAL ILLINOIS

CITY           SKY/WX    TMP DP  RH WIND       PRES   REMARKS
CHAMPAIGN      CLOUDY    56  53  90 NE9       30.01S
DANVILLE*      CLOUDY    55  50  82 N12       29.99R
RANTOUL*       CLOUDY    57  51  78 NE8       30.03R
MATTOON        CLOUDY    57  56  96 NE8       29.99S
PARIS*         CLOUDY    58  56  92 NE5       30.00S
$$

ILZ079-100>102-301500-
SOUTHWEST ILLINOIS

CITY           SKY/WX    TMP DP  RH WIND       PRES   REMARKS
ALTON          MOSUNNY   66  61  82 CALM      29.98
BELLEVILLE     SUNNY     68  62  83 N8        29.97R
CAHOKIA*       SUNNY     67  60  78 CALM      29.96F
SPARTA*        SUNNY     68  58  70 CALM      29.98S
$$

ILZ064>066-069>071-074>076-080>082-084>086-088>090-092>094-301500-
SOUTH-CENTRAL ILLINOIS

CITY           SKY/WX    TMP DP  RH WIND       PRES   REMARKS
CARBONDALE     MOSUNNY   64  60  87 CALM      29.97S
CAIRO*         SUNNY     66  64  93 CALM      29.97R
EFFINGHAM*     FOG       59  57  92 CALM      29.98S VSB 3/4
MARION         MOSUNNY   68  61  77 CALM      29.98S
CENTRALIA*     SUNNY     68  58  69 N3        29.97S
SALEM*         SUNNY     68  63  84 CALM      29.97S
METROPOLIS*    SUNNY     67  61  81 CALM      29.97R
$$

ILZ067-068-072-073-078-083-087-091-301500-
SOUTHEAST ILLINOIS

CITY           SKY/WX    TMP DP  RH WIND       PRES   REMARKS
LAWRENCEVILLE  SUNNY     64  59  83 N7        29.97S HAZE
FLORA*         SUNNY     64  57  79 NE5       29.97S
FAIRFIELD*     SUNNY     70  63  78 N3        29.96S
HARRISBURG*    SUNNY     63  62  94 CALM      29.98S
ROBINSON*      FOG       61  60  99 N6        29.99R VSB 3/4
CARMI*         SUNNY     68  63  83 CALM      29.96R
$$

ABBREVIATIONS USED IN REMARKS
   TC - TEMPERATURE IN CELSIUS
  WCI - WIND CHILL INDEX
   HX - HEAT INDEX
  VSB - VISIBILITY
$$



USA.gov is the U.S. government's official web portal to all federal, state and local government web resources and services.